When you browse on this site, cookies collect data to enhance your experience and personalize the content and advertising you see.
Visit our Privacy Policy to learn more. By continuing to use the site, you agree to this use of cookies and data.
  • In United Kingdom
  • List of Countries
  • For 7 days
  • Water Temperature
  • Weather Map
  • Weather Widgets
  • user-avatar
    Login

    Hourly Weather Comarnic

    Today, 24 January, Friday

    Time Temperature Precipitation Wind Pressure Humidity
    00:00 -6°C° 0 mm 2 mps 691 mmHg 67%
    01:00 -4°C° 0 mm 1 mps 691 mmHg 66%
    02:00 -6°C° 0 mm 2 mps 691 mmHg 67%
    03:00 -6°C° 0 mm 2 mps 690 mmHg 66%
    04:00 -4°C° 0 mm 1 mps 690 mmHg 65%
    05:00 -4°C° 0 mm 1 mps 690 mmHg 63%
    06:00 -4°C° 0 mm 1 mps 690 mmHg 61%
    07:00 -4°C° 0 mm 1 mps 690 mmHg 58%
    08:00 -5°C° 0 mm 0 mps 690 mmHg 56%
    09:00 -2°C° 0 mm 1 mps 690 mmHg 50%
    10:00 0°C° 0 mm 1 mps 690 mmHg 43%
    11:00 +2°C° 0 mm 1 mps 690 mmHg 36%
    12:00 +3°C° 0 mm 1 mps 690 mmHg 36%
    13:00 +3°C° 0 mm 1 mps 689 mmHg 36%
    14:00 +3°C° 0 mm 2 mps 689 mmHg 36%
    15:00 +2°C° 0 mm 2 mps 689 mmHg 40%
    16:00 +2°C° 0 mm 1 mps 688 mmHg 45%
    17:00 +1°C° 0 mm 1 mps 687 mmHg 49%
    18:00 +1°C° 0 mm 1 mps 687 mmHg 47%
    19:00 +1°C° 0 mm 1 mps 687 mmHg 46%
    20:00 +1°C° 0 mm 1 mps 686 mmHg 44%
    21:00 0°C° 0 mm 1 mps 686 mmHg 44%
    22:00 0°C° 0 mm 1 mps 686 mmHg 44%
    23:00 0°C° 0 mm 1 mps 686 mmHg 44%

    Tomorrow, 25 January, Saturday

    Time Temperature Precipitation Wind Pressure Humidity
    00:00 -2°C° 0 mm 2 mps 686 mmHg 44%
    01:00 -2°C° 0 mm 2 mps 685 mmHg 43%
    02:00 -2°C° 0 mm 2 mps 685 mmHg 42%
    03:00 -2°C° 0 mm 2 mps 685 mmHg 42%
    04:00 -2°C° 0 mm 2 mps 684 mmHg 41%
    05:00 -2°C° 0 mm 2 mps 684 mmHg 40%
    06:00 -2°C° 0 mm 2 mps 684 mmHg 41%
    07:00 -2°C° 0 mm 2 mps 684 mmHg 41%
    08:00 -2°C° 0 mm 2 mps 685 mmHg 41%
    09:00 +1°C° 0 mm 2 mps 685 mmHg 40%
    10:00 +3°C° 0 mm 2 mps 686 mmHg 39%
    11:00 +5°C° 0 mm 1 mps 686 mmHg 38%
    12:00 +6°C° 0 mm 1 mps 686 mmHg 39%
    13:00 +6°C° 0 mm 1 mps 686 mmHg 41%
    14:00 +6°C° 0 mm 1 mps 685 mmHg 42%
    15:00 +5°C° 0 mm 1 mps 685 mmHg 48%
    16:00 +3°C° 0 mm 1 mps 685 mmHg 54%
    17:00 +2°C° 0 mm 1 mps 684 mmHg 60%
    18:00 +2°C° 0 mm 1 mps 685 mmHg 63%
    19:00 +1°C° 0 mm 1 mps 685 mmHg 66%
    20:00 +1°C° 0 mm 1 mps 685 mmHg 69%
    21:00 -1°C° 0 mm 2 mps 685 mmHg 72%
    22:00 -1°C° 0 mm 2 mps 685 mmHg 76%
    23:00 -1°C° 0 mm 2 mps 685 mmHg 79%

    Day after tomorrow, 26 January, Sunday

    Time Temperature Precipitation Wind Pressure Humidity
    00:00 +1°C° 0 mm 1 mps 685 mmHg 81%
    01:00 +1°C° 0 mm 1 mps 685 mmHg 83%
    02:00 +1°C° 0 mm 1 mps 685 mmHg 84%
    03:00 +1°C° 0 mm 1 mps 685 mmHg 85%
    04:00 +1°C° 0 mm 1 mps 685 mmHg 86%
    05:00 +1°C° 0 mm 1 mps 685 mmHg 87%
    06:00 +1°C° 0 mm 1 mps 685 mmHg 87%
    07:00 +1°C° 0 mm 1 mps 685 mmHg 88%
    08:00 -1°C° 0 mm 0 mps 686 mmHg 89%
    09:00 +1°C° 0 mm 0 mps 686 mmHg 84%
    10:00 +2°C° 0 mm 0 mps 687 mmHg 79%
    11:00 +4°C° 0 mm 0 mps 687 mmHg 75%
    12:00 +5°C° 0 mm 1 mps 687 mmHg 73%
    13:00 +5°C° 0 mm 1 mps 687 mmHg 71%
    14:00 +6°C° 0 mm 1 mps 686 mmHg 69%
    15:00 +5°C° 0 mm 1 mps 686 mmHg 71%
    16:00 +4°C° 0 mm 1 mps 686 mmHg 73%
    17:00 +3°C° 0 mm 1 mps 685 mmHg 75%
    18:00 +1°C° 0 mm 0 mps 685 mmHg 76%
    19:00 +1°C° 0 mm 0 mps 685 mmHg 77%
    20:00 0°C° 0 mm 0 mps 685 mmHg 78%
    21:00 +1°C° 0 mm 1 mps 685 mmHg 79%
    22:00 +1°C° 0 mm 1 mps 685 mmHg 80%
    23:00 +1°C° 0 mm 1 mps 685 mmHg 80%

    27 January, Monday

    Time Temperature Precipitation Wind Pressure Humidity
    00:00 +1°C° 0 mm 1 mps 685 mmHg 81%
    01:00 +1°C° 0 mm 1 mps 684 mmHg 81%
    02:00 +1°C° 0 mm 1 mps 684 mmHg 82%
    03:00 +1°C° 0 mm 1 mps 684 mmHg 81%
    04:00 0°C° 0 mm 0 mps 684 mmHg 80%
    05:00 0°C° 0 mm 0 mps 683 mmHg 79%
    06:00 0°C° 0 mm 0 mps 683 mmHg 79%
    07:00 0°C° 0 mm 0 mps 683 mmHg 79%
    08:00 0°C° 0 mm 0 mps 683 mmHg 79%
    09:00 +1°C° 0 mm 0 mps 683 mmHg 74%
    10:00 +3°C° 0 mm 0 mps 684 mmHg 69%
    11:00 +4°C° 0 mm 0 mps 684 mmHg 64%
    12:00 +4°C° 0 mm 0 mps 684 mmHg 64%
    13:00 +6°C° 0 mm 1 mps 683 mmHg 64%
    14:00 +6°C° 0 mm 1 mps 683 mmHg 64%
    15:00 +5°C° 0 mm 1 mps 682 mmHg 69%
    16:00 +3°C° 0 mm 0 mps 682 mmHg 73%
    17:00 +2°C° 0 mm 0 mps 682 mmHg 78%
    18:00 +2°C° 0 mm 0 mps 681 mmHg 79%
    19:00 +2°C° 0 mm 0 mps 681 mmHg 80%
    20:00 +1°C° 0 mm 0 mps 681 mmHg 81%
    21:00 +1°C° 0 mm 0 mps 681 mmHg 82%
    22:00 +2°C° 0 mm 1 mps 681 mmHg 83%
    23:00 +2°C° 0 mm 1 mps 681 mmHg 84%

    28 January, Tuesday

    Time Temperature Precipitation Wind Pressure Humidity
    00:00 +1°C° 0 mm 1 mps 681 mmHg 84%
    01:00 +1°C° 0 mm 1 mps 680 mmHg 85%
    02:00 +1°C° 0 mm 1 mps 680 mmHg 86%
    03:00 +1°C° 0 mm 1 mps 680 mmHg 86%
    04:00 +1°C° 0 mm 1 mps 679 mmHg 87%
    05:00 -1°C° 0 mm 2 mps 679 mmHg 88%
    06:00 +1°C° 0 mm 1 mps 679 mmHg 88%
    07:00 +1°C° 0 mm 1 mps 679 mmHg 88%
    08:00 +1°C° 0 mm 1 mps 679 mmHg 88%
    09:00 +2°C° 0 mm 1 mps 679 mmHg 81%
    10:00 +4°C° 0 mm 1 mps 679 mmHg 74%
    11:00 +5°C° 0 mm 1 mps 680 mmHg 67%
    12:00 +6°C° 0 mm 1 mps 679 mmHg 67%
    13:00 +5°C° 0 mm 2 mps 679 mmHg 66%
    14:00 +5°C° 0 mm 2 mps 678 mmHg 66%
    15:00 +5°C° 0 mm 2 mps 678 mmHg 71%
    16:00 +4°C° 0 mm 2 mps 677 mmHg 76%
    17:00 +3°C° 0 mm 2 mps 677 mmHg 81%
    18:00 +2°C° 0 mm 2 mps 677 mmHg 82%
    19:00 +2°C° 0 mm 2 mps 677 mmHg 83%
    20:00 +1°C° 0 mm 2 mps 677 mmHg 85%
    21:00 +1°C° 0 mm 2 mps 677 mmHg 84%
    22:00 +1°C° 0 mm 2 mps 676 mmHg 84%
    23:00 +1°C° 0 mm 2 mps 676 mmHg 84%

    29 January, Wednesday

    Time Temperature Precipitation Wind Pressure Humidity
    00:00 +1°C° 0 mm 2 mps 676 mmHg 84%
    01:00 +1°C° 0 mm 2 mps 675 mmHg 83%
    02:00 +1°C° 0 mm 2 mps 675 mmHg 83%
    03:00 +1°C° 0 mm 2 mps 675 mmHg 85%
    04:00 +1°C° 0 mm 2 mps 675 mmHg 88%
    05:00 +1°C° 0 mm 2 mps 674 mmHg 90%
    06:00 +1°C° 0 mm 2 mps 675 mmHg 91%
    07:00 0°C° 0 mm 3 mps 675 mmHg 92%
    08:00 0°C° 0 mm 3 mps 675 mmHg 93%
    09:00 +1°C° 0 mm 3 mps 676 mmHg 86%
    10:00 +1°C° 0 mm 3 mps 676 mmHg 80%
    11:00 +2°C° 0 mm 3 mps 677 mmHg 74%
    12:00 +2°C° 0 mm 3 mps 677 mmHg 67%
    13:00 +4°C° 0 mm 2 mps 677 mmHg 61%
    14:00 +5°C° 0 mm 2 mps 677 mmHg 54%
    15:00 +4°C° 0 mm 2 mps 677 mmHg 57%
    16:00 +3°C° 0 mm 2 mps 677 mmHg 59%
    17:00 +4°C° 0 mm 1 mps 677 mmHg 62%
    18:00 +2°C° 0 mm 2 mps 677 mmHg 65%
    19:00 +1°C° 0 mm 2 mps 677 mmHg 69%
    20:00 +1°C° 0 mm 2 mps 677 mmHg 72%
    21:00 +1°C° 0 mm 2 mps 676 mmHg 71%
    22:00 +1°C° 0 mm 2 mps 676 mmHg 69%
    23:00 +1°C° 0 mm 2 mps 676 mmHg 67%
    Show more